Flag for U.S.A. Weather past 2 weeks in Terre Haute, Indiana, U.S.A.

Now
71 °F

Sunny.


Feels Like: 72 °F
Forecast: 63 / 87 °F
Wind: 3 mph from South

Location: Terre Haute International Airport - Hulman Field

Current Time: Aug 2, 2015 at 9:25:13 AM

Latest Report: Aug 2, 2015 at 8:53 AM


Visibility: 10 mi

Pressure: 29.96 "Hg

Humidity: 78%

Dew point: 64 °F

Location of Terre HauteLocation

Historic Weather in Terre Haute — Graph

°F

Terre Haute temperature yesterday

Maximum temperature yesterday: 85 °F (at 4:53 PM)
Minimum temperature yesterday: 59 °F (at 6:53 AM)
Average temperature yesterday: 73 °F

Past Weeks' High & Low Weather Summary

 TemperatureHumidityPressure
High92 °F (Jul 28, 3:53 PM)97% (Jul 20, 4:53 AM)30.11 "Hg (Jul 20, 4:53 AM)
Low56 °F (Jul 22, 5:53 AM)32% (Jul 31, 6:53 PM)29.76 "Hg (Jul 20, 8:53 PM)
Average76 °F75%29.95 "Hg
* Reported Jul 18 7:53 AM — Aug 2 7:53 AM, Terre Haute, Weather by CustomWeather, © 2015

Note: Actual official high and low records may vary slightly from our data, if they occured in-between our weather recording intervals... More about our weather records

Advertising

Terre Haute weather history for previous 24 hours

 ConditionsComfort  
Time TempWeatherWind HumidityBarometerVisibility
7:53 AM
Sun, Aug 2
65 °FSunny.No wind91%29.96 "Hg10 mi
6:53 AM60 °FClear.No wind93%29.95 "Hg10 mi
5:53 AM62 °FClear.No wind90%29.94 "Hg10 mi
4:53 AM60 °FClear.No wind93%29.95 "Hg10 mi
3:53 AM63 °FClear.No wind90%29.96 "Hg10 mi
2:53 AM63 °FClear.No wind90%29.97 "Hg10 mi
1:53 AM63 °FClear.No wind93%29.97 "Hg10 mi
12:53 AM65 °FClear.No wind91%29.97 "Hg10 mi
11:53 PM
Sat, Aug 1
65 °FClear.No wind91%29.96 "Hg10 mi
10:53 PM67 °FClear.No wind85%29.97 "Hg10 mi
9:53 PM68 °FSunny.No wind84%29.96 "Hg10 mi
8:53 PM76 °FSunny.3 mph58%29.96 "Hg10 mi
7:53 PM81 °FSunny.6 mph49%29.96 "Hg10 mi
6:53 PM84 °FSunny.3 mph40%29.97 "Hg10 mi
5:53 PM85 °FSunny.No wind35%29.98 "Hg10 mi
4:53 PM85 °FSunny.5 mph36%29.98 "Hg10 mi
3:53 PM83 °FSunny.No wind38%29.99 "Hg10 mi
2:53 PM84 °FSunny.6 mph36%30.01 "Hg10 mi
1:53 PM83 °FSunny.5 mph38%30.02 "Hg10 mi
12:53 PM83 °FSunny.9 mph36%30.04 "Hg10 mi
11:53 AM81 °FSunny.3 mph37%30.04 "Hg10 mi
10:53 AM79 °FSunny.5 mph47%30.03 "Hg10 mi
9:53 AM74 °FSunny.3 mph62%30.03 "Hg10 mi
Weather by CustomWeather, © 2015

See weather overviewHow to use our weather pages